Location: A�t Lahcen
(32.8243°N, 5.4246°W)
Time: 02:00:52
(UTC+00:00)

USA 238 DEB - Pass Details

Date: 27 January 2021
Orbit: 992 x 1220 km, 63.4° (Epoch: 25 February)

Event Time Altitude Azimuth Distance (km) Brightness Sun altitude
Exits shadow 05:51:30 20° 240° (WSW) 2,130 4.8 -18.6°
Maximum altitude 05:55:47 47° 305° (NW) 1,322 3.8 -17.8°
Drops below altitude 10° 06:02:15 10° 19° (NNE) 2,875 6.0 -16.4°
Sets 06:05:05 0° 25° (NNE) 3,866 6.8 -15.8°
